KAL1543 RKPK-RKPC

Flight info

Callsign KAL1543
Flight time 0h 34m
Altitude 22000
Route OPONO3 ENGOT Y572 BEPKO
Aircraft A320/M-SDE3FGHIRWY/LB1

Departure

Time 2026-04-29 02:44
Airport Gimhae International Airport (RKPK)

Arrival

Time 2026-04-29 03:18
Airport Jeju International Airport (RKPC)
Time Latitude Longitude Altitude Speed Heading
2026-04-29 02:27 35.17236 128.94556 14 ft 0 kts 116°
2026-04-29 02:36 35.17236 128.94555 14 ft 2 kts 116°
2026-04-29 02:36 35.17243 128.94537 15 ft 2 kts 116°
2026-04-29 02:37 35.17251 128.94519 13 ft 2 kts 118°
2026-04-29 02:37 35.17259 128.94501 14 ft 2 kts 120°
2026-04-29 02:37 35.17268 128.94484 14 ft 2 kts 128°
2026-04-29 02:37 35.17279 128.94470 15 ft 2 kts 161°
2026-04-29 02:38 35.17288 128.94468 14 ft 0 kts 176°
2026-04-29 02:40 35.17284 128.94469 15 ft 4 kts 174°
2026-04-29 02:41 35.17219 128.94477 13 ft 13 kts 174°
2026-04-29 02:41 35.17129 128.94488 14 ft 13 kts 174°
2026-04-29 02:41 35.17040 128.94498 13 ft 13 kts 174°
2026-04-29 02:41 35.17004 128.94494 13 ft 5 kts 240°
2026-04-29 02:42 35.16988 128.94360 13 ft 22 kts 264°
2026-04-29 02:42 35.16971 128.94178 13 ft 21 kts 263°
2026-04-29 02:42 35.16975 128.94058 12 ft 12 kts 310°
2026-04-29 02:42 35.16998 128.94051 11 ft 0 kts 356°
2026-04-29 02:43 35.17008 128.94050 12 ft 3 kts 356°
2026-04-29 02:43 35.17082 128.94043 12 ft 35 kts 354°
2026-04-29 02:44 35.17551 128.93981 15 ft 99 kts 354°
2026-04-29 02:44 35.18429 128.93866 16 ft 152 kts 354°
2026-04-29 02:44 35.19516 128.93724 499 ft 155 kts 352°
2026-04-29 02:44 35.20598 128.93557 1140 ft 157 kts 348°
2026-04-29 02:45 35.21566 128.92847 1517 ft 179 kts 303°
2026-04-29 02:45 35.22221 128.91421 1836 ft 206 kts 299°
2026-04-29 02:45 35.22958 128.89805 2055 ft 227 kts 299°
2026-04-29 02:45 35.23734 128.88103 2568 ft 234 kts 300°
2026-04-29 02:46 35.24537 128.86345 3339 ft 237 kts 300°
2026-04-29 02:46 35.25340 128.84593 4199 ft 235 kts 300°
2026-04-29 02:46 35.26152 128.82820 4815 ft 239 kts 301°
2026-04-29 02:46 35.26970 128.81045 4998 ft 242 kts 301°
2026-04-29 02:47 35.27797 128.79238 4982 ft 242 kts 301°
2026-04-29 02:47 35.28612 128.77454 4979 ft 239 kts 301°
2026-04-29 02:47 35.29311 128.75608 4984 ft 243 kts 283°
2026-04-29 02:47 35.29176 128.73564 5011 ft 247 kts 249°
2026-04-29 02:48 35.28114 128.71906 5272 ft 253 kts 216°
2026-04-29 02:48 35.26589 128.70895 6174 ft 251 kts 205°
2026-04-29 02:48 35.24913 128.70082 6681 ft 267 kts 202°
2026-04-29 02:48 35.23137 128.69283 7276 ft 275 kts 203°
2026-04-29 02:49 35.21333 128.68479 8041 ft 277 kts 204°
2026-04-29 02:49 35.19522 128.67663 8806 ft 278 kts 205°
2026-04-29 02:49 35.17701 128.66834 9591 ft 279 kts 205°
2026-04-29 02:49 35.15874 128.65995 10301 ft 284 kts 206°
2026-04-29 02:50 35.13956 128.65103 10499 ft 305 kts 206°
2026-04-29 02:50 35.11903 128.64142 10673 ft 326 kts 206°
2026-04-29 02:50 35.09735 128.63131 11032 ft 338 kts 206°
2026-04-29 02:50 35.07523 128.62105 11655 ft 341 kts 206°
2026-04-29 02:51 35.05332 128.61090 12386 ft 341 kts 206°
2026-04-29 02:51 35.03114 128.60061 13140 ft 342 kts 206°
2026-04-29 02:51 35.00888 128.59027 13893 ft 343 kts 206°
2026-04-29 02:51 34.98649 128.57986 14552 ft 344 kts 206°
2026-04-29 02:52 34.96404 128.56941 15198 ft 346 kts 207°
2026-04-29 02:52 34.94149 128.55892 15892 ft 347 kts 207°
2026-04-29 02:52 34.91904 128.54850 16755 ft 342 kts 207°
2026-04-29 02:52 34.89699 128.53828 17682 ft 336 kts 207°
2026-04-29 02:53 34.87527 128.52821 18546 ft 333 kts 208°
2026-04-29 02:53 34.85371 128.51819 19237 ft 332 kts 208°
2026-04-29 02:53 34.83229 128.50783 19902 ft 328 kts 213°
2026-04-29 02:53 34.81316 128.49399 20596 ft 319 kts 221°
2026-04-29 02:54 34.79583 128.47757 21318 ft 313 kts 227°
2026-04-29 02:54 34.78090 128.45860 21952 ft 310 kts 232°
2026-04-29 02:54 34.76644 128.43853 22096 ft 323 kts 233°
2026-04-29 02:54 34.75146 128.41743 22158 ft 335 kts 233°
2026-04-29 02:55 34.73589 128.39550 22156 ft 348 kts 232°
2026-04-29 02:55 34.71980 128.37292 22161 ft 359 kts 232°
2026-04-29 02:55 34.70315 128.34967 22166 ft 369 kts 232°
2026-04-29 02:55 34.68611 128.32592 22160 ft 377 kts 232°
2026-04-29 02:56 34.66895 128.30210 22151 ft 379 kts 232°
2026-04-29 02:56 34.65161 128.27809 22143 ft 377 kts 232°
2026-04-29 02:56 34.63435 128.25421 22123 ft 376 kts 232°
2026-04-29 02:56 34.61713 128.23039 22149 ft 375 kts 232°
2026-04-29 02:57 34.59994 128.20662 22146 ft 374 kts 232°
2026-04-29 02:57 34.58280 128.18292 22162 ft 374 kts 232°
2026-04-29 02:57 34.56563 128.15920 22157 ft 374 kts 232°
2026-04-29 02:57 34.54847 128.13550 22153 ft 374 kts 232°
2026-04-29 02:58 34.53129 128.11179 22150 ft 374 kts 232°
2026-04-29 02:58 34.51409 128.08806 22154 ft 375 kts 232°
2026-04-29 02:58 34.49683 128.06428 22153 ft 375 kts 232°
2026-04-29 02:58 34.47958 128.04052 22153 ft 375 kts 232°
2026-04-29 02:59 34.46231 128.01675 22152 ft 375 kts 232°
2026-04-29 02:59 34.44505 127.99301 22152 ft 376 kts 232°
2026-04-29 02:59 34.42798 127.96954 22153 ft 376 kts 232°
2026-04-29 02:59 34.41068 127.94579 22170 ft 376 kts 232°
2026-04-29 03:00 34.39339 127.92206 22160 ft 376 kts 232°
2026-04-29 03:00 34.37606 127.89827 22161 ft 376 kts 232°
2026-04-29 03:00 34.35878 127.87459 22141 ft 375 kts 232°
2026-04-29 03:00 34.34147 127.85087 22150 ft 375 kts 232°
2026-04-29 03:01 34.32421 127.82724 22155 ft 375 kts 232°
2026-04-29 03:01 34.30695 127.80362 22156 ft 375 kts 232°
2026-04-29 03:01 34.28968 127.77999 22155 ft 375 kts 232°
2026-04-29 03:01 34.27256 127.75660 21882 ft 377 kts 232°
2026-04-29 03:02 34.25525 127.73299 21545 ft 374 kts 232°
2026-04-29 03:02 34.23809 127.70961 21093 ft 370 kts 232°
2026-04-29 03:02 34.22109 127.68647 20628 ft 366 kts 232°
2026-04-29 03:02 34.20423 127.66354 20194 ft 364 kts 232°
2026-04-29 03:03 34.18749 127.64077 19760 ft 362 kts 232°
2026-04-29 03:03 34.17081 127.61809 19321 ft 360 kts 232°
2026-04-29 03:03 34.15420 127.59551 18899 ft 359 kts 232°
2026-04-29 03:03 34.13767 127.57304 18449 ft 358 kts 232°
2026-04-29 03:04 34.12109 127.55053 17953 ft 356 kts 232°
2026-04-29 03:04 34.10457 127.52811 17335 ft 357 kts 232°
2026-04-29 03:04 34.08822 127.50596 16869 ft 351 kts 231°
2026-04-29 03:04 34.07210 127.48412 16440 ft 346 kts 231°
2026-04-29 03:05 34.05628 127.46269 16033 ft 346 kts 231°
2026-04-29 03:05 34.04028 127.44102 15606 ft 346 kts 231°
2026-04-29 03:05 34.02427 127.41935 15197 ft 345 kts 231°
2026-04-29 03:05 34.00827 127.39771 14787 ft 345 kts 231°
2026-04-29 03:06 33.99230 127.37612 14378 ft 345 kts 231°
2026-04-29 03:06 33.97632 127.35456 13958 ft 345 kts 231°
2026-04-29 03:06 33.96038 127.33296 13488 ft 344 kts 232°
2026-04-29 03:06 33.94594 127.30997 12824 ft 344 kts 238°
2026-04-29 03:07 33.93302 127.28608 12437 ft 337 kts 239°
2026-04-29 03:07 33.92066 127.26239 12050 ft 330 kts 239°
2026-04-29 03:07 33.90871 127.23947 11688 ft 324 kts 239°
2026-04-29 03:07 33.89678 127.21679 11316 ft 318 kts 239°
2026-04-29 03:08 33.88497 127.19453 10951 ft 313 kts 239°
2026-04-29 03:08 33.87339 127.17288 10587 ft 300 kts 239°
2026-04-29 03:08 33.86238 127.15242 10405 ft 283 kts 239°
2026-04-29 03:08 33.85196 127.13311 10213 ft 268 kts 239°
2026-04-29 03:09 33.84203 127.11474 10011 ft 255 kts 239°
2026-04-29 03:09 33.83246 127.09704 9650 ft 251 kts 239°
2026-04-29 03:09 33.82293 127.07939 9274 ft 252 kts 239°
2026-04-29 03:09 33.81349 127.06194 8924 ft 253 kts 239°
2026-04-29 03:10 33.80390 127.04422 8572 ft 253 kts 239°
2026-04-29 03:10 33.79425 127.02641 8220 ft 254 kts 239°
2026-04-29 03:10 33.78456 127.00855 7879 ft 255 kts 239°
2026-04-29 03:10 33.77489 126.99075 7611 ft 253 kts 239°
2026-04-29 03:11 33.76527 126.97305 7341 ft 253 kts 239°
2026-04-29 03:11 33.75567 126.95539 7078 ft 252 kts 239°
2026-04-29 03:11 33.74609 126.93776 6804 ft 252 kts 239°
2026-04-29 03:11 33.73648 126.92010 6541 ft 254 kts 239°
2026-04-29 03:12 33.72671 126.90214 6246 ft 258 kts 239°
2026-04-29 03:12 33.71686 126.88404 5981 ft 260 kts 239°
2026-04-29 03:12 33.70695 126.86587 5695 ft 260 kts 239°
2026-04-29 03:12 33.69719 126.84795 5419 ft 260 kts 239°
2026-04-29 03:13 33.68727 126.82976 5149 ft 260 kts 239°
2026-04-29 03:13 33.67732 126.81153 4877 ft 260 kts 239°
2026-04-29 03:13 33.66738 126.79334 4583 ft 261 kts 239°
2026-04-29 03:13 33.65745 126.77513 4302 ft 261 kts 240°
2026-04-29 03:14 33.64769 126.75676 4040 ft 262 kts 240°
2026-04-29 03:14 33.63804 126.73820 3976 ft 261 kts 240°
2026-04-29 03:14 33.62871 126.71988 3969 ft 260 kts 241°
2026-04-29 03:14 33.61928 126.70125 3932 ft 264 kts 241°
2026-04-29 03:15 33.60955 126.68221 3665 ft 272 kts 240°
2026-04-29 03:15 33.59958 126.66281 3293 ft 272 kts 240°
2026-04-29 03:15 33.58973 126.64367 2933 ft 267 kts 240°
2026-04-29 03:15 33.58014 126.62501 2597 ft 257 kts 240°
2026-04-29 03:16 33.57389 126.61282 2366 ft 250 kts 240°
2026-04-29 03:16 33.56503 126.59555 2001 ft 235 kts 241°
2026-04-29 03:16 33.55684 126.57956 1652 ft 221 kts 239°
2026-04-29 03:16 33.54907 126.56442 1357 ft 206 kts 240°
2026-04-29 03:17 33.54183 126.55028 1109 ft 192 kts 240°
2026-04-29 03:17 33.53520 126.53733 887 ft 174 kts 240°
2026-04-29 03:17 33.52913 126.52548 658 ft 158 kts 240°
2026-04-29 03:17 33.52374 126.51494 481 ft 141 kts 240°
2026-04-29 03:18 33.51881 126.50501 284 ft 138 kts 240°
2026-04-29 03:18 33.51374 126.49528 71 ft 136 kts 239°
2026-04-29 03:18 33.50941 126.48687 75 ft 93 kts 238°
2026-04-29 03:18 33.50710 126.48242 84 ft 38 kts 238°
2026-04-29 03:19 33.50572 126.48028 86 ft 30 kts 222°
2026-04-29 03:19 33.50425 126.47922 91 ft 16 kts 184°
2026-04-29 03:19 33.50409 126.48040 92 ft 24 kts 59°
2026-04-29 03:19 33.50500 126.48218 86 ft 25 kts 58°
2026-04-29 03:20 33.50587 126.48386 68 ft 23 kts 58°
2026-04-29 03:20 33.50670 126.48547 84 ft 22 kts 58°
2026-04-29 03:20 33.50756 126.48709 72 ft 26 kts 58°
2026-04-29 03:20 33.50848 126.48889 68 ft 24 kts 59°
2026-04-29 03:21 33.50858 126.49034 70 ft 19 kts 146°
2026-04-29 03:21 33.50811 126.49160 68 ft 18 kts 58°
2026-04-29 03:21 33.50812 126.49227 72 ft 8 kts 152°
2026-04-29 03:21 33.50764 126.49240 73 ft 0 kts 169°